Location: Eschertshofen
(49.3064°N, 11.5756°E)
Time: 04:11:46
(UTC+00:00)

ATLAS 2AS CENTAUR R/B - Pass Details

Date: 18 September 2020
Orbit: 939 x 1273 km, 63.7° (Epoch: 19 October)

Event Time Altitude Azimuth Distance (km) Brightness Sun altitude
Rises 19:13:15 0° 178° (S) 4,183 5.5 -18.7°
Reaches altitude 10° 19:16:24 10° 168° (SSE) 3,242 4.9 -19.2°
Enters shadow 19:16:57 12° 165° (SSE) 3,095 4.7 -19.2°
Exits shadow 19:24:45 27° 89° (E) 2,236 3.9 -20.4°
Drops below altitude 10° 19:29:30 10° 55° (NE) 3,250 5.0 -21.0°
Sets 19:32:39 0° 46° (NE) 4,195 5.7 -21.5°
